Wind_Speed
113 102 112 100 89 90 89 95 106 104 102 101 93 101 95 91 89 89 88 85 91 92 93 93 94 96 96 94 95 95 95 97 97 100 102 103 104 102 102 104 102 104 101
103 102 90 93 101 93 91 90 93 92 93 98 100 97 98 97 97 96 97 96 90 90 95 96 94 97 96 100 100 98 100 102 104 106 108 107 109 104 108 106 105 108 113
93 93 95 100 95 100 98 91 96 98 96 100 97 97 94 100 105 103 103 96 98 102 102 102 103 103 106 106 103 107 109 109 109 108 112 111 110 113 112 112 113 112 109
93 95 95 93 100 106 102 100 99 98 98 97 98 99 100 100 99 99 99 99 99 104 103 106 105 106 106 107 109 107 107 110 111 112 113 117 115 117 114 115 116 113 118
104 107 110 107 107 107 103 104 105 106 105 101 105 105 104 106 104 105 104 109 104 104 106 106 108 106 110 109 113 112 112 109 115 114 116 119 119 123 119 120 119 123 131
100 107 116 118 111 111 111 112 110 113 110 109 109 111 109 113 112 115 115 113 111 108 109 107 105 109 114 117 114 114 117 113 118 123 120 123 124 124 127 125 129 136 138
105 112 114 117 121 123 122 122 124 119 118 120 121 123 118 118 123 120 122 120 116 115 117 116 116 116 116 119 120 118 118 119 118 127 127 126 127 131 136 138 141 139 141
106 111 116 113 119 124 129 132 131 131 132 134 129 127 124 126 126 128 129 127 125 122 123 124 123 123 122 124 124 123 124 131 131 131 134 134 134 137 141 139 147 151 151
111 117 116 121 124 128 131 133 135 134 137 137 141 142 140 138 140 146 142 134 134 129 131 133 131 129 129 126 130 129 135 133 135 139 137 137 142 142 145 151 155 150 146
116 123 129 132 135 142 141 139 140 142 147 151 155 154 151 150 150 146 144 142 140 140 143 139 137 136 135 137 137 138 141 143 146 144 141 145 145 151 153 156 151 158 153
111 126 134 140 145 150 150 150 152 157 158 157 155 158 156 153 156 156 155 154 154 153 148 147 146 143 144 141 143 143 141 141 141 147 148 145 154 159 158 153 149 143 140
94 109 128 145 152 159 156 159 172 169 168 167 164 166 167 166 164 161 159 157 158 157 154 155 155 153 153 151 149 151 154 155 158 157 160 159 160 164 160 152 112 135 137
92 101 112 119 127 133 137 137 162 175 170 170 171 166 180 173 167 168 165 167 170 164 162 159 157 160 157 161 157 159 162 160 165 168 160 158 163 148 160 162 150 117 102
88 96 102 112 123 134 136 135 135 137 140 139 134 135 164 169 169 172 179 174 180 170 171 170 172 172 166 169 176 176 175 170 164 161 148 154 137 133 123 108 102 95 85
82 82 81 80 82 86 94 105 116 126 134 138 137 134 131 133 144 147 149 154 164 168 158 152 153 170 178 180 173 156 142 136 127 118 113 108 106 107 97 90 84 77 68
71 69 67 65 65 67 71 76 81 87 92 100 109 120 128 131 133 134 133 133 137 136 135 136 133 134 134 135 133 132 126 120 112 106 96 91 90 81 77 71 67 59 55
64 62 60 58 57 58 60 63 67 69 74 78 83 89 97 104 111 117 123 131 134 134 130 131 132 133 131 128 127 121 115 107 97 89 81 79 73 70 63 58 53 50 47
62 59 58 57 56 55 56 58 60 63 63 66 68 72 76 80 85 91 97 102 107 111 112 116 116 116 112 109 108 103 90 80 79 74 70 66 63 57 53 50 47 45 43
61 58 56 55 54 54 53 54 56 58 60 60 59 62 65 67 70 74 77 81 85 89 89 96 96 99 99 93 87 83 75 70 68 64 61 56 54 50 50 48 48 43 41
59 56 55 52 52 50 50 51 53 54 55 57 57 56 57 60 62 64 65 67 70 74 73 78 80 80 81 75 72 72 72 64 60 57 53 50 50 47 47 47 47 41 41
57 55 52 50 49 48 47 47 48 50 51 53 54 54 50 52 56 58 60 59 61 62 63 66 65 65 67 64 60 61 64 60 55 52 50 49 49 46 45 46 45 42 42
55 52 49 47 45 44 44 44 45 45 46 49 50 50 45 45 50 52 55 54 54 54 55 58 58 57 58 59 58 59 58 56 54 52 50 51 50 46 46 46 45 44 43
52 49 46 44 41 41 41 41 41 41 41 42 44 44 40 43 46 47 49 47 47 46 48 52 54 56 57 57 60 59 56 56 57 55 55 55 54 49 49 47 46 45 45
48 46 43 41 39 38 38 38 39 40 39 38 39 38 39 42 42 42 41 41 41 40 44 49 51 52 53 55 56 54 55 57 57 57 58 55 54 47 48 47 47 46 46
45 42 40 38 38 37 36 34 34 35 35 34 33 34 38 39 38 36 36 36 37 40 45 46 47 49 50 50 51 52 53 56 58 58 55 50 50 47 46 47 46 47 47
41 38 37 36 34 32 30 29 28 29 30 29 29 31 35 36 32 32 32 34 37 40 41 42 44 47 48 48 46 46 48 50 51 52 51 49 48 46 46 46 47 49 49
Wind_Direction
217 223 228 228 231 238 241 246 248 247 249 249 251 254 258 259 257 258 259 261 261 265 263 264 267 269 272 277 276 275 277 279 279 277 278 284 286 290 292 292 295 298 298
218 223 225 229 233 235 242 243 247 245 248 252 254 256 258 257 263 263 261 263 259 263 261 262 268 271 269 277 270 268 271 275 277 276 280 281 285 288 292 292 294 300 299
218 222 227 230 237 239 240 242 245 247 248 249 250 254 255 260 262 265 266 259 260 263 265 263 270 272 272 268 272 271 271 275 274 273 282 282 283 285 287 289 292 297 292
220 221 225 230 235 237 239 241 243 246 248 246 250 251 253 256 257 261 255 263 260 262 263 266 268 269 264 266 269 269 270 273 274 275 277 278 281 282 287 288 292 289 294
224 227 227 230 232 234 235 238 240 243 244 245 248 250 250 253 254 255 252 261 260 257 262 263 263 265 264 266 269 271 269 269 273 276 277 281 281 284 283 288 289 291 294
224 226 229 232 234 235 237 239 242 243 243 244 246 248 246 250 252 253 252 256 255 256 261 262 261 265 264 263 265 267 271 272 274 277 278 281 282 282 284 286 289 292 295
229 229 233 236 239 239 240 242 241 241 243 245 248 250 246 248 250 250 252 255 256 256 258 262 263 263 262 264 265 266 269 273 273 275 276 277 280 282 287 287 291 294 295
233 236 236 239 240 241 241 242 242 245 246 248 248 249 246 248 248 252 254 256 252 254 255 258 259 261 260 262 265 268 267 274 272 277 276 278 282 285 286 288 291 293 296
241 241 241 244 243 243 242 243 243 245 247 248 249 249 249 248 251 255 256 254 254 255 254 260 257 258 260 261 263 266 269 270 273 276 277 277 281 287 289 289 295 299 301
250 249 248 245 245 246 245 246 249 249 250 250 250 250 250 252 253 252 255 254 252 254 260 257 258 259 264 266 264 265 268 271 274 275 278 278 281 288 291 293 296 296 299
259 259 256 254 251 251 249 249 249 248 249 251 252 252 252 251 251 253 255 254 255 257 257 259 259 259 262 263 264 268 270 272 274 275 279 283 282 286 288 295 294 294 297
258 258 257 257 256 256 255 255 252 251 251 251 252 252 253 252 254 254 255 257 256 257 256 258 259 261 264 264 267 269 270 272 273 277 278 279 281 286 286 291 297 285 297
259 255 253 252 253 256 257 259 256 256 258 258 259 257 253 255 256 256 257 257 258 259 258 261 262 264 264 265 267 269 271 274 275 278 279 277 282 286 287 287 287 293 294
275 271 266 261 261 261 262 262 261 260 259 262 262 262 257 256 258 260 259 261 259 262 263 264 264 264 266 268 270 271 274 275 275 278 277 279 281 281 285 287 290 292 293
287 283 279 274 270 265 262 260 259 258 258 258 261 263 260 258 259 261 263 263 263 265 268 269 268 265 265 268 272 275 275 275 275 276 278 281 283 284 285 286 288 289 291
295 290 284 279 273 269 266 263 261 260 258 258 257 256 256 258 259 262 262 262 262 262 265 265 266 267 268 268 270 272 273 276 276 278 279 278 281 282 283 283 286 285 282
300 294 289 283 278 273 269 266 263 260 260 259 257 256 255 256 256 256 258 258 259 261 264 264 265 266 268 269 269 272 272 272 274 275 274 275 276 278 279 279 279 278 276
302 296 291 286 282 277 273 270 267 265 261 258 257 256 255 254 254 254 254 254 256 257 258 259 260 262 264 267 267 270 270 270 268 269 269 271 271 273 272 273 272 272 272
301 297 292 287 284 280 276 272 268 265 264 263 258 256 256 254 254 253 252 252 253 254 254 254 254 256 258 261 263 265 265 265 263 263 263 263 265 267 265 266 266 265 267
302 298 293 289 285 281 276 271 267 264 262 262 260 256 252 253 252 252 252 251 251 251 250 250 252 253 255 256 255 257 258 259 256 255 256 257 259 260 261 262 261 259 263
304 299 295 290 286 283 278 272 268 265 262 260 259 258 254 250 251 250 250 249 250 250 249 249 249 249 250 248 245 249 250 251 251 250 250 250 255 255 257 257 255 256 261
305 301 296 292 287 282 279 275 269 264 261 259 258 257 255 249 248 247 247 247 247 248 247 247 246 245 244 241 238 240 242 243 244 246 246 248 254 252 251 254 252 254 258
306 302 297 293 288 284 280 275 270 266 263 260 255 253 249 245 245 244 245 245 244 243 241 241 240 239 238 235 236 237 236 237 238 242 244 246 250 252 252 252 248 253 256
308 304 299 294 290 286 281 275 271 266 262 258 253 247 243 244 243 242 242 240 239 239 236 236 236 236 236 234 234 233 231 233 237 240 244 245 249 247 249 246 247 252 257
311 306 301 296 292 288 283 277 272 267 262 257 251 243 241 242 242 239 237 235 233 231 233 234 234 233 232 230 229 230 229 231 235 239 244 243 244 244 243 243 247 252 257
315 309 304 299 295 291 287 281 273 266 259 253 246 240 238 240 239 234 231 231 229 231 233 232 232 231 230 227 226 227 229 232 236 240 242 241 241 240 240 244 249 254 259
Height
10579 10581 10586 10589 10591 10592 10595 10598 10601 10605 10607 10613 10613 10613 10615 10619 10624 10633 10638 10639 10638 10635 10635 10636 10635 10633 10634 10632 10631 10629 10628 10626 10625 10620 10618 10616 10613 10611 10610 10606 10605 10604 10601
10562 10567 10568 10573 10577 10579 10580 10583 10585 10589 10592 10592 10594 10594 10596 10600 10603 10610 10616 10619 10618 10617 10617 10615 10615 10616 10615 10616 10613 10612 10611 10610 10609 10604 10601 10598 10597 10596 10592 10590 10588 10587 10583
10546 10551 10556 10559 10561 10563 10566 10565 10564 10566 10572 10574 10575 10574 10577 10580 10581 10586 10589 10592 10594 10597 10599 10599 10600 10598 10596 10594 10593 10594 10592 10591 10588 10585 10583 10577 10577 10577 10574 10572 10571 10568 10565
10530 10533 10536 10540 10544 10547 10549 10547 10548 10549 10553 10557 10558 10559 10558 10561 10563 10565 10567 10568 10573 10572 10573 10574 10575 10574 10573 10572 10572 10572 10571 10571 10569 10568 10565 10560 10558 10559 10559 10556 10555 10551 10549
10519 10521 10525 10526 10527 10527 10525 10527 10529 10530 10533 10535 10538 10539 10539 10541 10542 10546 10548 10548 10550 10553 10552 10554 10556 10555 10553 10552 10553 10553 10553 10552 10550 10548 10546 10541 10539 10536 10535 10533 10533 10531 10529
10504 10504 10504 10506 10508 10505 10503 10505 10506 10508 10508 10509 10511 10513 10518 10521 10520 10524 10526 10527 10527 10530 10529 10531 10534 10535 10533 10529 10531 10532 10533 10533 10531 10529 10526 10521 10514 10514 10514 10511 10511 10509 10508
10492 10490 10491 10488 10487 10484 10480 10480 10478 10480 10482 10483 10484 10487 10491 10495 10498 10499 10504 10506 10509 10510 10511 10509 10510 10511 10510 10510 10511 10512 10514 10510 10510 10507 10504 10501 10495 10497 10493 10491 10490 10487 10482
10475 10471 10467 10465 10462 10459 10455 10454 10454 10455 10455 10457 10457 10462 10465 10466 10467 10472 10476 10482 10485 10482 10485 10484 10486 10486 10488 10489 10490 10494 10495 10491 10486 10488 10484 10479 10474 10475 10472 10470 10464 10466 10464
10453 10449 10446 10447 10441 10433 10429 10426 10424 10428 10430 10429 10430 10433 10436 10437 10438 10441 10448 10453 10455 10456 10459 10459 10460 10460 10463 10465 10461 10466 10470 10467 10465 10464 10460 10457 10455 10453 10450 10450 10443 10440 10440
10428 10428 10421 10413 10407 10402 10399 10399 10396 10398 10398 10394 10396 10402 10406 10405 10405 10411 10418 10421 10425 10428 10429 10433 10435 10435 10440 10444 10439 10439 10441 10443 10443 10441 10438 10432 10432 10432 10427 10427 10418 10418 10417
10407 10397 10388 10379 10374 10369 10367 10365 10358 10354 10358 10360 10363 10364 10370 10372 10372 10378 10383 10389 10392 10397 10401 10405 10406 10409 10410 10414 10415 10417 10418 10415 10418 10412 10419 10417 10405 10412 10405 10405 10396 10400 10391
10368 10357 10348 10341 10336 10330 10327 10316 10314 10312 10314 10322 10322 10327 10329 10327 10337 10346 10350 10353 10355 10362 10366 10370 10375 10381 10385 10387 10390 10390 10393 10396 10391 10395 10394 10388 10387 10387 10387 10388 10382 10392 10371
10336 10318 10302 10290 10279 10273 10271 10270 10268 10270 10273 10276 10283 10282 10291 10292 10300 10305 10312 10317 10323 10330 10333 10339 10339 10345 10356 10359 10359 10362 10366 10373 10366 10368 10380 10359 10371 10362 10358 10367 10362 10350 10352
10289 10275 10264 10257 10247 10237 10230 10229 10229 10232 10233 10234 10238 10237 10246 10252 10260 10264 10267 10275 10283 10293 10297 10299 10309 10312 10321 10326 10333 10329 10333 10338 10338 10339 10335 10337 10335 10337 10337 10334 10334 10330 10329
10242 10228 10217 10209 10202 10197 10193 10191 10191 10193 10197 10200 10200 10201 10209 10214 10218 10223 10228 10236 10245 10253 10258 10262 10267 10275 10284 10292 10295 10299 10297 10302 10306 10307 10309 10309 10313 10312 10311 10310 10310 10308 10307
10200 10190 10181 10175 10169 10164 10159 10156 10156 10154 10156 10159 10162 10169 10174 10179 10182 10186 10193 10202 10208 10217 10225 10232 10238 10242 10250 10257 10264 10268 10273 10275 10277 10280 10284 10286 10290 10289 10290 10289 10290 10288 10289
10168 10158 10151 10146 10141 10137 10133 10129 10127 10129 10127 10131 10134 10137 10142 10148 10153 10157 10163 10172 10179 10184 10196 10202 10207 10212 10218 10228 10235 10242 10248 10253 10255 10258 10261 10264 10268 10271 10270 10271 10272 10272 10272
10141 10133 10126 10119 10115 10112 10109 10107 10105 10103 10105 10107 10109 10113 10117 10122 10127 10132 10138 10144 10151 10159 10170 10175 10182 10186 10194 10202 10213 10220 10224 10229 10232 10237 10241 10245 10249 10252 10253 10255 10257 10257 10257
10118 10110 10104 10098 10092 10090 10087 10085 10083 10083 10081 10083 10088 10091 10094 10100 10104 10109 10115 10122 10127 10133 10144 10149 10157 10163 10171 10180 10188 10195 10203 10207 10211 10217 10221 10227 10231 10236 10237 10239 10241 10243 10243
10097 10089 10082 10077 10072 10069 10067 10064 10062 10062 10062 10061 10063 10070 10076 10079 10083 10086 10092 10098 10104 10111 10120 10125 10132 10141 10148 10156 10164 10172 10178 10186 10191 10197 10203 10210 10215 10219 10221 10223 10226 10228 10229
10075 10067 10062 10056 10052 10049 10046 10044 10043 10042 10042 10042 10042 10046 10054 10061 10062 10067 10071 10077 10082 10088 10096 10102 10110 10119 10126 10134 10142 10149 10156 10164 10172 10179 10186 10193 10199 10203 10206 10208 10210 10212 10214
10055 10048 10042 10037 10033 10030 10026 10024 10024 10024 10024 10025 10026 10029 10036 10042 10044 10048 10053 10058 10064 10071 10078 10084 10091 10097 10104 10113 10121 10128 10137 10146 10154 10162 10169 10176 10182 10186 10190 10193 10195 10198 10200
10038 10031 10025 10020 10016 10013 10010 10008 10007 10007 10008 10010 10011 10014 10021 10023 10027 10031 10036 10042 10048 10055 10061 10067 10073 10079 10087 10097 10104 10112 10121 10129 10137 10144 10153 10158 10164 10170 10174 10178 10181 10183 10185
10023 10015 10009 10004 10000 9997 9994 9993 9992 9992 9993 9995 9997 10002 10005 10008 10012 10017 10023 10028 10034 10040 10046 10051 10057 10065 10072 10081 10090 10098 10105 10113 10121 10129 10135 10142 10148 10153 10157 10160 10164 10168 10171
10010 10002 9995 9990 9986 9982 9980 9978 9978 9978 9979 9981 9985 9989 9991 9994 9999 10005 10011 10017 10022 10027 10031 10038 10044 10052 10059 10067 10075 10084 10091 10099 10106 10113 10119 10126 10131 10136 10141 10146 10150 10153 10156
9998 9990 9983 9978 9974 9970 9968 9966 9965 9966 9967 9969 9972 9976 9978 9983 9989 9994 10000 10006 10010 10015 10021 10027 10034 10040 10047 10055 10064 10072 10079 10086 10093 10099 10105 10111 10116 10121 10126 10130 10134 10137 10140